Year,Month,Day,Hour,Minute,Value (Times are PST for temperature in C)
2008,07,14,00,00,13.40
2008,07,14,00,01,13.40
2008,07,14,00,02,13.40
2008,07,14,00,03,13.40
2008,07,14,00,04,13.40
2008,07,14,00,05,13.30
2008,07,14,00,06,13.30
2008,07,14,00,07,13.30
2008,07,14,00,08,13.20
2008,07,14,00,09,13.20
2008,07,14,00,10,13.10
2008,07,14,00,11,13.00
2008,07,14,00,12,12.90
2008,07,14,00,13,12.90
2008,07,14,00,14,12.80
2008,07,14,00,15,12.80
2008,07,14,00,16,12.70
2008,07,14,00,17,12.70
2008,07,14,00,18,12.60
2008,07,14,00,19,12.60
2008,07,14,00,20,12.60
2008,07,14,00,21,12.60
2008,07,14,00,22,12.60
2008,07,14,00,23,12.50
2008,07,14,00,24,12.50
2008,07,14,00,25,12.50
2008,07,14,00,26,12.50
2008,07,14,00,27,12.40
2008,07,14,00,28,12.40
2008,07,14,00,29,12.40
2008,07,14,00,30,12.40
2008,07,14,00,31,12.40
2008,07,14,00,32,12.30
2008,07,14,00,33,12.30
2008,07,14,00,34,12.30
2008,07,14,00,35,12.30
2008,07,14,00,36,12.30
2008,07,14,00,37,12.20
2008,07,14,00,38,12.20
2008,07,14,00,39,12.20
2008,07,14,00,40,12.20
2008,07,14,00,41,12.20
2008,07,14,00,42,12.20
2008,07,14,00,43,12.20
2008,07,14,00,44,12.20
2008,07,14,00,45,12.20
2008,07,14,00,46,12.20
2008,07,14,00,47,12.10
2008,07,14,00,48,12.10
2008,07,14,00,49,12.10
2008,07,14,00,50,12.10
2008,07,14,00,51,12.10
2008,07,14,00,52,12.10
2008,07,14,00,53,12.10
2008,07,14,00,54,12.10
2008,07,14,00,55,12.00
2008,07,14,00,56,12.00
2008,07,14,00,57,12.00
2008,07,14,00,58,12.00
2008,07,14,00,59,11.90
2008,07,14,01,00,11.90
2008,07,14,01,01,11.90
2008,07,14,01,02,11.90
2008,07,14,01,03,11.90
2008,07,14,01,04,11.90
2008,07,14,01,05,11.90
2008,07,14,01,06,11.90
2008,07,14,01,07,11.90
2008,07,14,01,08,11.90
2008,07,14,01,09,11.90
2008,07,14,01,10,11.90
2008,07,14,01,11,11.90
2008,07,14,01,12,11.90
2008,07,14,01,13,11.80
2008,07,14,01,14,11.80
2008,07,14,01,15,11.80
2008,07,14,01,16,11.80
2008,07,14,01,17,11.80
2008,07,14,01,18,11.80
2008,07,14,01,19,11.80
2008,07,14,01,20,11.70
2008,07,14,01,21,11.70
2008,07,14,01,22,11.70
2008,07,14,01,23,11.70
2008,07,14,01,24,11.70
2008,07,14,01,25,11.70
2008,07,14,01,26,11.70
2008,07,14,01,27,11.70
2008,07,14,01,28,11.70
2008,07,14,01,29,11.60
2008,07,14,01,30,11.60
2008,07,14,01,31,11.60
2008,07,14,01,32,11.60
2008,07,14,01,33,11.60
2008,07,14,01,34,11.60
2008,07,14,01,35,11.60
2008,07,14,01,36,11.60
2008,07,14,01,37,11.60
2008,07,14,01,38,11.60
2008,07,14,01,39,11.60
2008,07,14,01,40,11.50
2008,07,14,01,41,11.50
2008,07,14,01,42,11.50
2008,07,14,01,43,11.50
2008,07,14,01,44,11.40
2008,07,14,01,45,11.40
2008,07,14,01,46,11.40
2008,07,14,01,47,11.40
2008,07,14,01,48,11.40
2008,07,14,01,49,11.40
2008,07,14,01,50,11.40
2008,07,14,01,51,11.40
2008,07,14,01,52,11.40
2008,07,14,01,53,11.40
2008,07,14,01,54,11.40
2008,07,14,01,55,11.40
2008,07,14,01,56,11.40
2008,07,14,01,57,11.40
2008,07,14,01,58,11.40
2008,07,14,01,59,11.40
2008,07,14,02,00,11.40
2008,07,14,02,01,11.30
2008,07,14,02,02,11.30
2008,07,14,02,03,11.30
2008,07,14,02,04,11.30
2008,07,14,02,05,11.30
2008,07,14,02,06,11.30
2008,07,14,02,07,11.30
2008,07,14,02,08,11.30
2008,07,14,02,09,11.30
2008,07,14,02,10,11.30
2008,07,14,02,11,11.30
2008,07,14,02,12,11.30
2008,07,14,02,13,11.30
2008,07,14,02,14,11.30
2008,07,14,02,15,11.30
2008,07,14,02,16,11.30
2008,07,14,02,17,11.20
2008,07,14,02,18,11.20
2008,07,14,02,19,11.20
2008,07,14,02,20,11.20
2008,07,14,02,21,11.20
2008,07,14,02,22,11.20
2008,07,14,02,23,11.20
2008,07,14,02,24,11.20
2008,07,14,02,25,11.20
2008,07,14,02,26,11.20
2008,07,14,02,27,11.20
2008,07,14,02,28,11.20
2008,07,14,02,29,11.20
2008,07,14,02,30,11.20
2008,07,14,02,31,11.20
2008,07,14,02,32,11.20
2008,07,14,02,33,11.20
2008,07,14,02,34,11.20
2008,07,14,02,35,11.20
2008,07,14,02,36,11.20
2008,07,14,02,37,11.20
2008,07,14,02,38,11.20
2008,07,14,02,39,11.20
2008,07,14,02,40,11.20
2008,07,14,02,41,11.10
2008,07,14,02,42,11.10
2008,07,14,02,43,11.10
2008,07,14,02,44,11.10
2008,07,14,02,45,11.10
2008,07,14,02,46,11.10
2008,07,14,02,47,11.10
2008,07,14,02,48,11.10
2008,07,14,02,49,11.10
2008,07,14,02,50,11.10
2008,07,14,02,51,11.10
2008,07,14,02,52,11.10
2008,07,14,02,53,11.10
2008,07,14,02,54,11.10
2008,07,14,02,55,11.10
2008,07,14,02,56,11.10
2008,07,14,02,57,11.10
2008,07,14,02,58,11.10
2008,07,14,02,59,11.10
2008,07,14,03,00,11.10
2008,07,14,03,01,11.10
2008,07,14,03,02,11.10
2008,07,14,03,03,11.10
2008,07,14,03,04,11.10
2008,07,14,03,05,11.10
2008,07,14,03,06,11.10
2008,07,14,03,07,11.10
2008,07,14,03,08,11.10
2008,07,14,03,09,11.10
2008,07,14,03,10,11.10
2008,07,14,03,11,11.10
2008,07,14,03,12,11.10
2008,07,14,03,13,11.10
2008,07,14,03,14,11.10
2008,07,14,03,15,11.10
2008,07,14,03,16,11.10
2008,07,14,03,17,11.10
2008,07,14,03,18,11.10
2008,07,14,03,19,11.10
2008,07,14,03,20,11.10
2008,07,14,03,21,11.00
2008,07,14,03,22,11.00
2008,07,14,03,23,11.00
2008,07,14,03,24,11.00
2008,07,14,03,25,11.00
2008,07,14,03,26,11.00
2008,07,14,03,27,11.00
2008,07,14,03,28,11.00
2008,07,14,03,29,11.00
2008,07,14,03,30,10.90
2008,07,14,03,31,10.90
2008,07,14,03,32,10.90
2008,07,14,03,33,10.90
2008,07,14,03,34,10.80
2008,07,14,03,35,10.80
2008,07,14,03,36,10.80
2008,07,14,03,37,10.80
2008,07,14,03,38,10.80
2008,07,14,03,39,10.80
2008,07,14,03,40,10.80
2008,07,14,03,41,10.80
2008,07,14,03,42,10.80
2008,07,14,03,43,10.80
2008,07,14,03,44,10.80
2008,07,14,03,45,10.80
2008,07,14,03,46,10.80
2008,07,14,03,47,10.80
2008,07,14,03,48,10.80
2008,07,14,03,49,10.80
2008,07,14,03,50,10.80
2008,07,14,03,51,10.80
2008,07,14,03,52,10.80
2008,07,14,03,53,10.80
2008,07,14,03,54,10.80
2008,07,14,03,55,10.80
2008,07,14,03,56,10.80
2008,07,14,03,57,10.80
2008,07,14,03,58,10.80
2008,07,14,03,59,10.80
2008,07,14,04,00,10.80
2008,07,14,04,01,10.80
2008,07,14,04,02,10.80
2008,07,14,04,03,10.80
2008,07,14,04,04,10.70
2008,07,14,04,05,10.70
2008,07,14,04,06,10.70
2008,07,14,04,07,10.70
2008,07,14,04,08,10.70
2008,07,14,04,09,10.70
2008,07,14,04,10,10.70
2008,07,14,04,11,10.70
2008,07,14,04,12,10.70
2008,07,14,04,13,10.70
2008,07,14,04,14,10.70
2008,07,14,04,15,10.70
2008,07,14,04,16,10.70
2008,07,14,04,17,10.70
2008,07,14,04,18,10.70
2008,07,14,04,19,10.70
2008,07,14,04,20,10.60
2008,07,14,04,21,10.60
2008,07,14,04,22,10.60
2008,07,14,04,23,10.60
2008,07,14,04,24,10.60
2008,07,14,04,25,10.60
2008,07,14,04,26,10.60
2008,07,14,04,27,10.60
2008,07,14,04,28,10.60
2008,07,14,04,29,10.60
2008,07,14,04,30,10.60
2008,07,14,04,31,10.60
2008,07,14,04,32,10.60
2008,07,14,04,33,10.60
2008,07,14,04,34,10.60
2008,07,14,04,35,10.60
2008,07,14,04,36,10.50
2008,07,14,04,37,10.50
2008,07,14,04,38,10.50
2008,07,14,04,39,10.50
2008,07,14,04,40,10.40
2008,07,14,04,41,10.40
2008,07,14,04,42,10.40
2008,07,14,04,43,10.40
2008,07,14,04,44,10.40
2008,07,14,04,45,10.40
2008,07,14,04,46,10.40
2008,07,14,04,47,10.40
2008,07,14,04,48,10.40
2008,07,14,04,49,10.40
2008,07,14,04,50,10.40
2008,07,14,04,51,10.40
2008,07,14,04,52,10.40
2008,07,14,04,53,10.40
2008,07,14,04,54,10.40
2008,07,14,04,55,10.30
2008,07,14,04,56,10.30
2008,07,14,04,57,10.30
2008,07,14,04,58,10.30
2008,07,14,04,59,10.30
2008,07,14,05,00,10.30
2008,07,14,05,01,10.30
2008,07,14,05,02,10.30
2008,07,14,05,03,10.20
2008,07,14,05,04,10.20
2008,07,14,05,05,10.20
2008,07,14,05,06,10.20
2008,07,14,05,07,10.20
2008,07,14,05,08,10.20
2008,07,14,05,09,10.20
2008,07,14,05,10,10.20
2008,07,14,05,11,10.20
2008,07,14,05,12,10.10
2008,07,14,05,13,10.10
2008,07,14,05,14,10.10
2008,07,14,05,15,10.10
2008,07,14,05,16,10.10
2008,07,14,05,17,10.10
2008,07,14,05,18,10.10
2008,07,14,05,19,10.10
2008,07,14,05,20,10.10
2008,07,14,05,21,10.10
2008,07,14,05,22,10.10
2008,07,14,05,23,10.10
2008,07,14,05,24,10.10
2008,07,14,05,25,10.10
2008,07,14,05,26,10.10
2008,07,14,05,27,10.10
2008,07,14,05,28,10.10
2008,07,14,05,29,10.10
2008,07,14,05,30,10.00
2008,07,14,05,31,10.00
2008,07,14,05,32,10.00
2008,07,14,05,33,10.00
2008,07,14,05,34,10.00
2008,07,14,05,35,10.00
2008,07,14,05,36,9.90
2008,07,14,05,37,9.90
2008,07,14,05,38,9.90
2008,07,14,05,39,9.90
2008,07,14,05,40,9.90
2008,07,14,05,41,9.90
2008,07,14,05,42,9.90
2008,07,14,05,43,9.90
2008,07,14,05,44,9.90
2008,07,14,05,45,9.90
2008,07,14,05,46,9.90
2008,07,14,05,47,9.90
2008,07,14,05,48,9.90
2008,07,14,05,49,9.90
2008,07,14,05,50,9.90
2008,07,14,05,51,9.90
2008,07,14,05,52,9.90
2008,07,14,05,53,9.90
2008,07,14,05,54,9.90
2008,07,14,05,55,9.90
2008,07,14,05,56,10.00
2008,07,14,05,57,9.90
2008,07,14,05,58,9.90
2008,07,14,05,59,9.90
2008,07,14,06,00,9.90
2008,07,14,06,01,10.00
2008,07,14,06,02,10.00
2008,07,14,06,03,10.00
2008,07,14,06,04,10.10
2008,07,14,06,05,10.10
2008,07,14,06,06,10.10
2008,07,14,06,07,10.10
2008,07,14,06,08,10.10
2008,07,14,06,09,10.10
2008,07,14,06,10,10.10
2008,07,14,06,11,10.00
2008,07,14,06,12,10.00
2008,07,14,06,13,10.10
2008,07,14,06,14,10.10
2008,07,14,06,15,10.10
2008,07,14,06,16,10.20
2008,07,14,06,17,10.20
2008,07,14,06,18,10.30
2008,07,14,06,19,10.30
2008,07,14,06,20,10.40
2008,07,14,06,21,10.50
2008,07,14,06,22,10.60
2008,07,14,06,23,10.60
2008,07,14,06,24,10.60
2008,07,14,06,25,10.70
2008,07,14,06,26,10.70
2008,07,14,06,27,10.80
2008,07,14,06,28,10.80
2008,07,14,06,29,10.90
2008,07,14,06,30,10.90
2008,07,14,06,31,11.00
2008,07,14,06,32,11.10
2008,07,14,06,33,11.20
2008,07,14,06,34,11.30
2008,07,14,06,35,11.30
2008,07,14,06,36,11.40
2008,07,14,06,37,11.40
2008,07,14,06,38,11.50
2008,07,14,06,39,11.50
2008,07,14,06,40,11.60
2008,07,14,06,41,11.70
2008,07,14,06,42,11.80
2008,07,14,06,43,11.90
2008,07,14,06,44,12.10
2008,07,14,06,45,12.20
2008,07,14,06,46,12.20
2008,07,14,06,47,12.30
2008,07,14,06,48,12.40
2008,07,14,06,49,12.40
2008,07,14,06,50,12.40
2008,07,14,06,51,12.40
2008,07,14,06,52,12.40
2008,07,14,06,53,12.40
2008,07,14,06,54,12.40
2008,07,14,06,55,12.40
2008,07,14,06,56,12.40
2008,07,14,06,57,12.50
2008,07,14,06,58,12.50
2008,07,14,06,59,12.60
2008,07,14,07,00,12.60
2008,07,14,07,01,12.60
2008,07,14,07,02,12.60
2008,07,14,07,03,12.60
2008,07,14,07,04,12.60
2008,07,14,07,05,12.70
2008,07,14,07,06,12.70
2008,07,14,07,07,12.80
2008,07,14,07,08,12.80
2008,07,14,07,09,12.80
2008,07,14,07,10,12.90
2008,07,14,07,11,12.90
2008,07,14,07,12,12.90
2008,07,14,07,13,12.90
2008,07,14,07,14,12.90
2008,07,14,07,15,12.90
2008,07,14,07,16,12.90
2008,07,14,07,17,12.90
2008,07,14,07,18,12.90
2008,07,14,07,19,12.90
2008,07,14,07,20,12.90
2008,07,14,07,21,12.90
2008,07,14,07,22,12.90
2008,07,14,07,23,12.90
2008,07,14,07,24,12.80
2008,07,14,07,25,12.80
2008,07,14,07,26,12.80
2008,07,14,07,27,12.90
2008,07,14,07,28,12.90
2008,07,14,07,29,13.00
2008,07,14,07,30,13.00
2008,07,14,07,31,13.10
2008,07,14,07,32,13.10
2008,07,14,07,33,13.10
2008,07,14,07,34,13.10
2008,07,14,07,35,13.20
2008,07,14,07,36,13.20
2008,07,14,07,37,13.10
2008,07,14,07,38,13.00
2008,07,14,07,39,12.90
2008,07,14,07,40,12.90
2008,07,14,07,41,12.90
2008,07,14,07,42,12.90
2008,07,14,07,43,12.90
2008,07,14,07,44,12.90
2008,07,14,07,45,12.90
2008,07,14,07,46,12.80
2008,07,14,07,47,12.80
2008,07,14,07,48,12.80
2008,07,14,07,49,12.80
2008,07,14,07,50,12.70
2008,07,14,07,51,12.70
2008,07,14,07,52,12.70
2008,07,14,07,53,12.80
2008,07,14,07,54,12.80
2008,07,14,07,55,12.80
2008,07,14,07,56,12.80
2008,07,14,07,57,12.90
2008,07,14,07,58,12.90
2008,07,14,07,59,12.90
2008,07,14,08,00,12.90
2008,07,14,08,01,12.90
2008,07,14,08,02,12.90
2008,07,14,08,03,12.90
2008,07,14,08,04,13.00
2008,07,14,08,05,13.00
2008,07,14,08,06,13.10
2008,07,14,08,07,13.20
2008,07,14,08,08,13.20
2008,07,14,08,09,13.30
2008,07,14,08,10,13.30
2008,07,14,08,11,13.30
2008,07,14,08,12,13.30
2008,07,14,08,13,13.30
2008,07,14,08,14,13.30
2008,07,14,08,15,13.30
2008,07,14,08,16,13.20
2008,07,14,08,17,13.20
2008,07,14,08,18,13.20
2008,07,14,08,19,13.20
2008,07,14,08,20,13.20
2008,07,14,08,21,13.30
2008,07,14,08,22,13.30
2008,07,14,08,23,13.40
2008,07,14,08,24,13.50
2008,07,14,08,25,13.50
2008,07,14,08,26,13.60
2008,07,14,08,27,13.60
2008,07,14,08,28,13.70
2008,07,14,08,29,13.60
2008,07,14,08,30,13.60
2008,07,14,08,31,13.60
2008,07,14,08,32,13.60
2008,07,14,08,33,13.60
2008,07,14,08,34,13.70
2008,07,14,08,35,13.70
2008,07,14,08,36,13.70
2008,07,14,08,37,13.80
2008,07,14,08,38,13.80
2008,07,14,08,39,13.90
2008,07,14,08,40,14.00
2008,07,14,08,41,14.10
2008,07,14,08,42,14.10
2008,07,14,08,43,14.00
2008,07,14,08,44,14.00
2008,07,14,08,45,13.90
2008,07,14,08,46,13.90
2008,07,14,08,47,14.00
2008,07,14,08,48,14.10
2008,07,14,08,49,14.10
2008,07,14,08,50,14.10
2008,07,14,08,51,14.10
2008,07,14,08,52,14.20
2008,07,14,08,53,14.20
2008,07,14,08,54,14.20
2008,07,14,08,55,14.20
2008,07,14,08,56,14.10
2008,07,14,08,57,14.10
2008,07,14,08,58,14.10
2008,07,14,08,59,14.10
2008,07,14,09,00,14.10
2008,07,14,09,01,14.00
2008,07,14,09,02,14.10
2008,07,14,09,03,14.10
2008,07,14,09,04,14.10
2008,07,14,09,05,14.20
2008,07,14,09,06,14.20
2008,07,14,09,07,14.20
2008,07,14,09,08,14.20
2008,07,14,09,09,14.30
2008,07,14,09,10,14.30
2008,07,14,09,11,14.30
2008,07,14,09,12,14.30
2008,07,14,09,13,14.40
2008,07,14,09,14,14.40
2008,07,14,09,15,14.50
2008,07,14,09,16,14.60
2008,07,14,09,17,14.70
2008,07,14,09,18,14.70
2008,07,14,09,19,14.70
2008,07,14,09,20,14.80
2008,07,14,09,21,14.90
2008,07,14,09,22,14.90
2008,07,14,09,23,14.90
2008,07,14,09,24,14.70
2008,07,14,09,25,14.60
2008,07,14,09,26,14.60
2008,07,14,09,27,14.60
2008,07,14,09,28,14.60
2008,07,14,09,29,14.60
2008,07,14,09,30,14.60
2008,07,14,09,31,14.60
2008,07,14,09,32,14.60
2008,07,14,09,33,14.60
2008,07,14,09,34,14.60
2008,07,14,09,35,14.60
2008,07,14,09,36,14.60
2008,07,14,09,37,14.60
2008,07,14,09,38,14.70
2008,07,14,09,39,14.70
2008,07,14,09,40,14.70
2008,07,14,09,41,14.80
2008,07,14,09,42,14.80
2008,07,14,09,43,14.80
2008,07,14,09,44,14.80
2008,07,14,09,45,14.80
2008,07,14,09,46,14.90
2008,07,14,09,47,15.00
2008,07,14,09,48,15.00
2008,07,14,09,49,15.00
2008,07,14,09,50,14.80
2008,07,14,09,51,14.70
2008,07,14,09,52,14.60
2008,07,14,09,53,14.50
2008,07,14,09,54,14.50
2008,07,14,09,55,14.40
2008,07,14,09,56,14.50
2008,07,14,09,57,14.40
2008,07,14,09,58,14.40
2008,07,14,09,59,14.30
2008,07,14,10,00,14.30
2008,07,14,10,01,14.30
2008,07,14,10,02,14.30
2008,07,14,10,03,14.30
2008,07,14,10,04,14.20
2008,07,14,10,05,14.10
2008,07,14,10,06,14.10
2008,07,14,10,07,14.20
2008,07,14,10,08,14.20
2008,07,14,10,09,14.30
2008,07,14,10,10,14.30
2008,07,14,10,11,14.30
2008,07,14,10,12,14.30
2008,07,14,10,13,14.40
2008,07,14,10,14,14.50
2008,07,14,10,15,14.50
2008,07,14,10,16,14.60
2008,07,14,10,17,14.60
2008,07,14,10,18,14.50
2008,07,14,10,19,14.50
2008,07,14,10,20,14.50
2008,07,14,10,21,14.50
2008,07,14,10,22,14.60
2008,07,14,10,23,14.60
2008,07,14,10,24,14.60
2008,07,14,10,25,14.70
2008,07,14,10,26,14.80
2008,07,14,10,27,15.00
2008,07,14,10,28,15.00
2008,07,14,10,29,15.00
2008,07,14,10,30,15.00
2008,07,14,10,31,15.00
2008,07,14,10,32,15.00
2008,07,14,10,33,15.00
2008,07,14,10,34,15.00
2008,07,14,10,35,15.00
2008,07,14,10,36,14.90
2008,07,14,10,37,15.00
2008,07,14,10,38,15.00
2008,07,14,10,39,15.00
2008,07,14,10,40,15.00
2008,07,14,10,41,15.00
2008,07,14,10,42,15.00
2008,07,14,10,43,15.00
2008,07,14,10,44,15.00
2008,07,14,10,45,14.90
2008,07,14,10,46,14.90
2008,07,14,10,47,15.00
2008,07,14,10,48,15.00
2008,07,14,10,49,15.00
2008,07,14,10,50,14.90
2008,07,14,10,51,15.00
2008,07,14,10,52,15.00
2008,07,14,10,53,15.10
2008,07,14,10,54,15.30
2008,07,14,10,55,15.20
2008,07,14,10,56,15.00
2008,07,14,10,57,15.00
2008,07,14,10,58,15.00
2008,07,14,10,59,15.00
2008,07,14,11,00,15.00
2008,07,14,11,01,14.90
2008,07,14,11,02,14.90
2008,07,14,11,03,14.80
2008,07,14,11,04,14.80
2008,07,14,11,05,14.80
2008,07,14,11,06,14.70
2008,07,14,11,07,14.70
2008,07,14,11,08,14.70
2008,07,14,11,09,14.70
2008,07,14,11,10,14.80
2008,07,14,11,11,14.80
2008,07,14,11,12,15.00
2008,07,14,11,13,15.00
2008,07,14,11,14,15.20
2008,07,14,11,15,15.30
2008,07,14,11,16,15.40
2008,07,14,11,17,15.50
2008,07,14,11,18,15.60
2008,07,14,11,19,15.60
2008,07,14,11,20,15.70
2008,07,14,11,21,15.70
2008,07,14,11,22,15.80
2008,07,14,11,23,15.80
2008,07,14,11,24,15.80
2008,07,14,11,25,15.90
2008,07,14,11,26,15.90
2008,07,14,11,27,16.00
2008,07,14,11,28,16.10
2008,07,14,11,29,16.10
2008,07,14,11,30,16.10
2008,07,14,11,31,16.10
2008,07,14,11,32,16.00
2008,07,14,11,33,15.90
2008,07,14,11,34,15.90
2008,07,14,11,35,15.80
2008,07,14,11,36,15.80
2008,07,14,11,37,15.80
2008,07,14,11,38,15.90
2008,07,14,11,39,16.00
2008,07,14,11,40,16.10
2008,07,14,11,41,16.00
2008,07,14,11,42,16.00
2008,07,14,11,43,16.00
2008,07,14,11,44,16.10
2008,07,14,11,45,16.10
2008,07,14,11,46,16.10
2008,07,14,11,47,16.10
2008,07,14,11,48,16.00
2008,07,14,11,49,16.00
2008,07,14,11,50,16.00
2008,07,14,11,51,16.00
2008,07,14,11,52,16.10
2008,07,14,11,53,16.20
2008,07,14,11,54,16.30
2008,07,14,11,55,16.30
2008,07,14,11,56,16.30
2008,07,14,11,57,16.30
2008,07,14,11,58,16.40
2008,07,14,11,59,16.50
2008,07,14,12,00,16.50
2008,07,14,12,01,16.50
2008,07,14,12,02,16.60
2008,07,14,12,03,16.60
2008,07,14,12,04,16.70
2008,07,14,12,05,16.80
2008,07,14,12,06,16.90
2008,07,14,12,07,17.00
2008,07,14,12,08,17.00
2008,07,14,12,09,17.10
2008,07,14,12,10,17.10
2008,07,14,12,11,17.20
2008,07,14,12,12,17.10
2008,07,14,12,13,17.00
2008,07,14,12,14,17.00
2008,07,14,12,15,17.10
2008,07,14,12,16,17.00
2008,07,14,12,17,16.90
2008,07,14,12,18,16.90
2008,07,14,12,19,17.00
2008,07,14,12,20,17.00
2008,07,14,12,21,17.10
2008,07,14,12,22,17.10
2008,07,14,12,23,17.10
2008,07,14,12,24,17.10
2008,07,14,12,25,17.10
2008,07,14,12,26,17.10
2008,07,14,12,27,17.10
2008,07,14,12,28,17.10
2008,07,14,12,29,17.10
2008,07,14,12,30,17.10
2008,07,14,12,31,17.10
2008,07,14,12,32,17.00
2008,07,14,12,33,16.90
2008,07,14,12,34,16.70
2008,07,14,12,35,16.60
2008,07,14,12,36,16.50
2008,07,14,12,37,16.40
2008,07,14,12,38,16.40
2008,07,14,12,39,16.40
2008,07,14,12,40,16.50
2008,07,14,12,41,16.60
2008,07,14,12,42,16.60
2008,07,14,12,43,16.60
2008,07,14,12,44,16.60
2008,07,14,12,45,16.70
2008,07,14,12,46,16.70
2008,07,14,12,47,16.70
2008,07,14,12,48,16.80
2008,07,14,12,49,16.90
2008,07,14,12,50,17.00
2008,07,14,12,51,17.20
2008,07,14,12,52,17.30
2008,07,14,12,53,17.30
2008,07,14,12,54,17.30
2008,07,14,12,55,17.40
2008,07,14,12,56,17.40
2008,07,14,12,57,17.40
2008,07,14,12,58,17.40
2008,07,14,12,59,17.50
2008,07,14,13,00,17.60
2008,07,14,13,01,17.80
2008,07,14,13,02,17.80
2008,07,14,13,03,17.80
2008,07,14,13,04,17.80
2008,07,14,13,05,17.80
2008,07,14,13,06,17.80
2008,07,14,13,07,17.80
2008,07,14,13,08,17.90
2008,07,14,13,09,17.90
2008,07,14,13,10,18.00
2008,07,14,13,11,18.10
2008,07,14,13,12,18.20
2008,07,14,13,13,18.30
2008,07,14,13,14,18.40
2008,07,14,13,15,18.50
2008,07,14,13,16,18.60
2008,07,14,13,17,18.70
2008,07,14,13,18,18.70
2008,07,14,13,19,18.70
2008,07,14,13,20,18.70
2008,07,14,13,21,18.80
2008,07,14,13,22,18.70
2008,07,14,13,23,18.70
2008,07,14,13,24,18.70
2008,07,14,13,25,18.70
2008,07,14,13,26,18.70
2008,07,14,13,27,18.70
2008,07,14,13,28,18.70
2008,07,14,13,29,18.80
2008,07,14,13,30,18.80
2008,07,14,13,31,18.80
2008,07,14,13,32,18.80
2008,07,14,13,33,18.90
2008,07,14,13,34,19.00
2008,07,14,13,35,19.10
2008,07,14,13,36,19.20
2008,07,14,13,37,19.40
2008,07,14,13,38,19.50
2008,07,14,13,39,19.70
2008,07,14,13,40,19.90
2008,07,14,13,41,20.00
2008,07,14,13,42,19.90
2008,07,14,13,43,19.90
2008,07,14,13,44,19.90
2008,07,14,13,45,20.00
2008,07,14,13,46,20.10
2008,07,14,13,47,20.20
2008,07,14,13,48,20.30
2008,07,14,13,49,20.30
2008,07,14,13,50,20.40
2008,07,14,13,51,20.50
2008,07,14,13,52,20.50
2008,07,14,13,53,20.60
2008,07,14,13,54,20.60
2008,07,14,13,55,20.60
2008,07,14,13,56,20.70
2008,07,14,13,57,20.60
2008,07,14,13,58,20.50
2008,07,14,13,59,20.40
2008,07,14,14,00,20.40
2008,07,14,14,01,20.50
2008,07,14,14,02,20.40
2008,07,14,14,03,20.40
2008,07,14,14,04,20.30
2008,07,14,14,05,20.20
2008,07,14,14,06,20.10
2008,07,14,14,07,20.10
2008,07,14,14,08,20.10
2008,07,14,14,09,20.00
2008,07,14,14,10,20.00
2008,07,14,14,11,20.00
2008,07,14,14,12,20.10
2008,07,14,14,13,20.20
2008,07,14,14,14,20.20
2008,07,14,14,15,20.20
2008,07,14,14,16,20.30
2008,07,14,14,17,20.30
2008,07,14,14,18,20.40
2008,07,14,14,19,20.50
2008,07,14,14,20,20.50
2008,07,14,14,21,20.40
2008,07,14,14,22,20.40
2008,07,14,14,23,20.40
2008,07,14,14,24,20.40
2008,07,14,14,25,20.40
2008,07,14,14,26,20.40
2008,07,14,14,27,20.40
2008,07,14,14,28,20.40
2008,07,14,14,29,20.40
2008,07,14,14,30,20.50
2008,07,14,14,31,20.50
2008,07,14,14,32,20.50
2008,07,14,14,33,20.40
2008,07,14,14,34,20.30
2008,07,14,14,35,20.30
2008,07,14,14,36,20.30
2008,07,14,14,37,20.30
2008,07,14,14,38,20.30
2008,07,14,14,39,20.30
2008,07,14,14,40,20.30
2008,07,14,14,41,20.20
2008,07,14,14,42,20.20
2008,07,14,14,43,20.20
2008,07,14,14,44,20.10
2008,07,14,14,45,20.10
2008,07,14,14,46,20.00
2008,07,14,14,47,19.90
2008,07,14,14,48,19.80
2008,07,14,14,49,19.80
2008,07,14,14,50,19.70
2008,07,14,14,51,19.50
2008,07,14,14,52,19.40
2008,07,14,14,53,19.20
2008,07,14,14,54,19.10
2008,07,14,14,55,19.10
2008,07,14,14,56,19.10
2008,07,14,14,57,19.00
2008,07,14,14,58,19.00
2008,07,14,14,59,19.00
2008,07,14,15,00,19.00
2008,07,14,15,01,18.90
2008,07,14,15,02,18.90
2008,07,14,15,03,18.90
2008,07,14,15,04,18.80
2008,07,14,15,05,18.70
2008,07,14,15,06,18.60
2008,07,14,15,07,18.50
2008,07,14,15,08,18.30
2008,07,14,15,09,18.30
2008,07,14,15,10,18.20
2008,07,14,15,11,18.20
2008,07,14,15,12,18.20
2008,07,14,15,13,18.30
2008,07,14,15,14,18.30
2008,07,14,15,15,18.30
2008,07,14,15,16,18.40
2008,07,14,15,17,18.30
2008,07,14,15,18,18.20
2008,07,14,15,19,18.10
2008,07,14,15,20,18.00
2008,07,14,15,21,17.90
2008,07,14,15,22,17.90
2008,07,14,15,23,18.00
2008,07,14,15,24,18.00
2008,07,14,15,25,18.10
2008,07,14,15,26,18.10
2008,07,14,15,27,18.20
2008,07,14,15,28,18.20
2008,07,14,15,29,18.30
2008,07,14,15,30,18.30
2008,07,14,15,31,18.40
2008,07,14,15,32,18.40
2008,07,14,15,33,18.50
2008,07,14,15,34,18.50
2008,07,14,15,35,18.60
2008,07,14,15,36,18.60
2008,07,14,15,37,18.70
2008,07,14,15,38,18.70
2008,07,14,15,39,18.80
2008,07,14,15,40,18.90
2008,07,14,15,41,19.00
2008,07,14,15,42,19.00
2008,07,14,15,43,19.20
2008,07,14,15,44,19.30
2008,07,14,15,45,19.40
2008,07,14,15,46,19.50
2008,07,14,15,47,19.60
2008,07,14,15,48,19.60
2008,07,14,15,49,19.60
2008,07,14,15,50,19.60
2008,07,14,15,51,19.70
2008,07,14,15,52,19.60
2008,07,14,15,53,19.70
2008,07,14,15,54,19.70
2008,07,14,15,55,19.70
2008,07,14,15,56,19.70
2008,07,14,15,57,19.70
2008,07,14,15,58,19.70
2008,07,14,15,59,19.70
2008,07,14,16,00,19.70
2008,07,14,16,01,19.80
2008,07,14,16,02,19.80
2008,07,14,16,03,19.50
2008,07,14,16,04,19.10
2008,07,14,16,05,18.90
2008,07,14,16,06,18.80
2008,07,14,16,07,18.60
2008,07,14,16,08,18.50
2008,07,14,16,09,18.40
2008,07,14,16,10,18.30
2008,07,14,16,11,18.20
2008,07,14,16,12,18.20
2008,07,14,16,13,18.20
2008,07,14,16,14,18.30
2008,07,14,16,15,18.30
2008,07,14,16,16,18.30
2008,07,14,16,17,18.40
2008,07,14,16,18,18.50
2008,07,14,16,19,18.60
2008,07,14,16,20,18.60
2008,07,14,16,21,18.70
2008,07,14,16,22,18.70
2008,07,14,16,23,18.80
2008,07,14,16,24,18.90
2008,07,14,16,25,18.90
2008,07,14,16,26,19.00
2008,07,14,16,27,19.10
2008,07,14,16,28,19.20
2008,07,14,16,29,19.30
2008,07,14,16,30,19.30
2008,07,14,16,31,19.20
2008,07,14,16,32,18.90
2008,07,14,16,33,18.80
2008,07,14,16,34,18.60
2008,07,14,16,35,18.50
2008,07,14,16,36,18.50
2008,07,14,16,37,18.50
2008,07,14,16,38,18.50
2008,07,14,16,39,18.40
2008,07,14,16,40,18.20
2008,07,14,16,41,18.10
2008,07,14,16,42,18.10
2008,07,14,16,43,18.10
2008,07,14,16,44,18.10
2008,07,14,16,45,18.20
2008,07,14,16,46,18.20
2008,07,14,16,47,18.20
2008,07,14,16,48,18.20
2008,07,14,16,49,18.20
2008,07,14,16,50,18.20
2008,07,14,16,51,18.30
2008,07,14,16,52,18.20
2008,07,14,16,53,18.30
2008,07,14,16,54,18.20
2008,07,14,16,55,18.20
2008,07,14,16,56,18.30
2008,07,14,16,57,18.30
2008,07,14,16,58,18.40
2008,07,14,16,59,18.50
2008,07,14,17,00,18.60
2008,07,14,17,01,18.60
2008,07,14,17,02,18.70
2008,07,14,17,03,18.80
2008,07,14,17,04,18.90
2008,07,14,17,05,19.00
2008,07,14,17,06,19.10
2008,07,14,17,07,19.20
2008,07,14,17,08,19.30
2008,07,14,17,09,19.40
2008,07,14,17,10,19.50
2008,07,14,17,11,19.60
2008,07,14,17,12,19.70
2008,07,14,17,13,19.90
2008,07,14,17,14,20.00
2008,07,14,17,15,20.20
2008,07,14,17,16,20.30
2008,07,14,17,17,20.40
2008,07,14,17,18,20.60
2008,07,14,17,19,20.70
2008,07,14,17,20,20.80